Погода в Нарышкино

Россия / Орловская область     52°57′56″N   35°43′31″E
темп.,
°C
ветер,
м/с
пор.,
м/с
влажн.,
%
обл.,
%
осадки,
мм/ч
давл.,
гПа
погр.,
м
19 апреля, пн
пн1900:00+4с379418 0.0 1019145
03:00+4ссв369365 0.0 101899
06:00+3ссв369690 0.0 1018121
09:00+7всв4782100 0.3 1018482
12:00+9всв567798 0.5 1018816
15:00+10св7872100 1.5 10171091
18:00+7св71086100 0.3 1018682
21:00+5св5995100 0.3 1018587
20 апреля, вт
вт2000:00+5св5895100 0.0 1017352
03:00+5св489698 0.1 1016373
06:00+6всв4896100 0.1 1015356
09:00+8в6986100 0.6 1014759
12:00+8в6982100 0.3 1013910
15:00+9всв7981100 0.4 10111112
18:00+5св71292100 0.0 1008611
21:00+4св71394100 1.4 1005673
21 апреля, ср
ср2100:00+1с71498100 7.0 1001507
03:00+1сз81399100 13.1 999508
06:00+1зсз71398100 1.3 1000617
09:00+2з71298100 1.3 1004739
12:00+4з61192100 0.1 1007866
15:00+8зюз61077100 0.3 10091068
18:00+7зюз5980100 0.3 1011658
21:00+4ююз3890100 0.3 1013151
22 апреля, чт
чт2200:00+3ююз4990100 0.0 1014184
03:00+4ю2394100 0.7 101475
06:00+4ююз499453 0.1 1015229
09:00+8ююз468645 0.1 1016471
12:00+11ююз567175 0.7 10161163
15:00+14ююз686093 2.6 10161630
18:00+12ююз477256 1.2 1016253
21:00+9ю488295 2.1 1017139
23 апреля, пт
пт2300:00+7ю498957 0.0 1017162
03:00+6ю389232 0.0 1017145
06:00+6ю410947 0.1 1017190
09:00+11ю6117893 0.1 1017525
12:00+15ю8116018 0.0 10151408
15:00+15ююз8105776 1.3 10141840
18:00+14ю6116985 1.4 1013808
21:00+10зюз4992100 4.1 1014372